World > North America > United States > New York

Colden, New York Regional Weather

Lat: 42.64N, Lon: 78.69W
Wx Zone: NYZ085
Feedback

Colden, NY Regional Weather

Expires:201907212200;;423341
ASUS41 KALY 212110
RWRALY

NEW YORK STATE HOURLY WEATHER ROUNDUP
NATIONAL WEATHER SERVICE ALBANY NY
500 PM EDT SUN JUL 21 2019

NOTE: "FAIR" INDICATES FEW OR NO CLOUDS BELOW 12,000 FEET WITH NO
SIGNIFICANT WEATHER AND/OR NO OBSTRUCTIONS TO VISIBILITY.


NYZ001>004-010>016-019>021-085-212200-
WEST

  
CITY           SKY/WX    TMP DP  RH WIND       PRES   REMARKS
NIAGARA FALLS  FAIR      83  52  34 NW9       29.90R                  
BUFFALO        PTSUNNY   80  61  52 SW12      29.91R                  
DUNKIRK        FAIR      78  70  76 W8        29.93S                  
JAMESTOWN      PTSUNNY   76  68  76 W9        29.97S                  
WELLSVILLE     PTSUNNY   79  69  71 NE9G16    29.96S                  
ROCHESTER      PTSUNNY   84  57  39 NW13      29.88S                  
PENN YAN       PTSUNNY   82  67  60 NW9       29.89S                  
$$

             KEY
       WCI = WIND CHILL INDEX
       VSB = VISIBILITY
       HX  = HEAT INDEX
$$
  

SKY/WX - Weather  TMP - Temperature  DP - Dew Point  RH - Relative Humidity
WIND - Wind Direction/Speed PRES - Barometric Pressure VSB - Visibility
WCI - Wind Chill Index E13G22 Wind - East Wind 13 mph/Gusts of 22 mph